sat.trackr.live / text

‹ back to catalog

STARLINK-32944

NORAD 63022 · 2025-032T

PAYLOAD ACTIVE UNKNOWN

§ Identity

Operator
Country
US
Launch date
2025-02-15
Launch site
AFETR
Launch vehicle
Mass (kg)
RCS (m²)

Purposes: comms

External: N2YO · Heavens-Above · Gunter

§ Orbital elements

Epoch: 2026-05-24T17:22:08.239008Z

Period
94.27 min
Inclination
43.0024°
Eccentricity
0.0001189
Mean motion
15.27598561 rev/d
Perigee alt
482.2 km
Apogee alt
483.8 km
Semi-major
6,861.1 km
B*
3.1272e-4
RAAN
267.0692°
Arg perigee
273.7068°
Mean anomaly
86.3647°
Rev number
7,224

§ Raw data

STARLINK-329441 63022U 25032T   26144.72370647  .00008358  00000+0  31272-3 0  99992 63022  43.0024 267.0692 0001189 273.7068  86.3647 15.27598561 72240

JSON: /api/v1/satellites/63022 · /tle

For live sub-satellite position, see the globe view (requires WebGL).

§ Visibility from observer

Set your observer location to see the next 7 days of passes ≥ 10°. The values pass through the URL so the page stays shareable.

No JS? Fill the form by hand. The geolocation button needs JavaScript.